This is the latest recevied weather packets stored in our database for station/object OE3MHU-13. If no packets are shown the sender has not sent any weather packets the latest 10 day(s).
| Time | Temp. | Humidity | Pressure | Rain* | Wind** | Luminosity | Snow |
|---|---|---|---|---|---|---|---|
| 1787969481 | 17.78° C | 85% | 1017.5 hPa | 0 mm | - | - | - |
| 1787969181 | 17.78° C | 86% | 1017.2 hPa | 0 mm | - | - | - |
| 1787968881 | 17.78° C | 86% | 1017.4 hPa | 0 mm | - | - | - |
| 1787968585 | 17.78° C | 87% | 1017.3 hPa | 0 mm | - | - | - |
| 1787968282 | 17.78° C | 87% | 1017.1 hPa | 0 mm | - | - | - |
| 1787967980 | 17.78° C | 87% | 1017.4 hPa | 0.25 mm | - | - | - |
| 1787967681 | 17.78° C | 88% | 1017.6 hPa | 0.51 mm | - | - | - |
| 1787967381 | 18.33° C | 89% | 1017.6 hPa | 1.52 mm | - | - | - |
| 1787967080 | 18.33° C | 89% | 1017.5 hPa | 2.03 mm | - | - | - |
| 1787966781 | 17.78° C | 89% | 1017.7 hPa | 2.29 mm | - | - | - |
| 1787966481 | 17.78° C | 88% | 1017.7 hPa | 2.29 mm | - | - | - |
| 1787966181 | 17.78° C | 88% | 1017.7 hPa | 2.29 mm | - | - | - |
| 1787965881 | 17.78° C | 87% | 1017.8 hPa | 2.29 mm | - | - | - |
| 1787965580 | 17.78° C | 87% | 1017.5 hPa | 2.29 mm | - | - | - |
| 1787965281 | 17.78° C | 87% | 1017.6 hPa | 2.54 mm | - | - | - |
| 1787964981 | 17.78° C | 87% | 1017.4 hPa | 2.54 mm | - | - | - |
| 1787964681 | 18.33° C | 86% | 1017.2 hPa | 3.3 mm | - | - | - |
| 1787964381 | 18.33° C | 87% | 1017.3 hPa | 3.05 mm | - | - | - |
| 1787964080 | 18.89° C | 87% | 1017 hPa | 3.3 mm | - | - | - |
| 1787963781 | 18.89° C | 87% | 1016.6 hPa | 2.79 mm | - | - | - |
| 1787963480 | 19.44° C | 89% | 1016.5 hPa | 2.54 mm | - | - | - |
| 1787963181 | 19.44° C | 89% | 1016.3 hPa | 2.29 mm | - | - | - |
| 1787962881 | 19.44° C | 90% | 1016.3 hPa | 2.29 mm | - | - | - |
| 1787962577 | 19.44° C | 90% | 1016.2 hPa | 2.29 mm | - | - | - |
| 1787962277 | 20° C | 89% | 1016.1 hPa | 2.29 mm | - | - | - |
* Rain latest hour (hover to see other rain measurements)
** Current wind speed in m/s (hover to see current wind gust speed)